[[{"header":{"parameterUnit":"m.s-1","parameterCategory":2,"la1":30.2992,"la2":30.254,"lo1":-89.0895,"lo2":-89.0443,"dy":0.0025,"dx":0.0025,"nx":19,"ny":19,"refTime":"2026-04-05T03:00:00:Z","depth":"0","parameterNumber":2,"parameterNumberName":"U-component_of_CURRENTS"},"data":[0,0,0,0.2466,0.2467,0.2498,0.2497,0.2523,0.2523,0,0,0,0,0,0,0,0,0,0,0,0.2449,0.245,0.2466,0.2467,0.2498,0.2497,0.2523,0.2523,0,0,0,0,0,0,0,0,0,0,0,0.2449,0.245,0.245,0.2467,0.2498,0.2497,0.2523,0.25,0,0,0,0,0,0,0,0,0,0,0.2471,0.2457,0.2449,0.245,0.2467,0.2498,0.2497,0.2499,0.2502,0.2509,0,0.2519,0,0.253,0.2526,0.2526,0,0,0,0.2455,0.2455,0.2472,0.245,0.2468,0.2498,0.248,0.25,0.2503,0.2512,0.252,0.2521,0.253,0.2526,0.2526,0.2604,0.2604,0,0,0.2453,0.2445,0.247,0.2474,0.2483,0.2479,0.2481,0.2502,0.2503,0.252,0.2522,0.2531,0.2526,0.2526,0.2603,0.2604,0,0,0,0.2456,0.2444,0.246,0.2473,0.2484,0.2481,0.2483,0.2502,0.251,0.2522,0.2531,0.2526,0.2527,0.2603,0.2604,0.2648,0,0,0,0.2455,0.2447,0.2459,0.2453,0.2484,0.2495,0.2482,0.2508,0.2511,0.2531,0.2526,0.2527,0.2602,0.2603,0.2645,0.2652,0,0,0,0.2447,0.2446,0.2454,0.2453,0.2474,0.2495,0.2503,0.2509,0.2517,0.2526,0.2527,0.2602,0.2603,0.2643,0.2649,0.2719,0,0,0,0.2431,0.2441,0.2453,0.2471,0.2474,0.2513,0.2503,0.2522,0.2531,0.2526,0.2602,0.2603,0.2642,0.2646,0.2717,0.2716,0.2729,0,0,0.2434,0.2441,0.2454,0.2466,0.2508,0.2508,0.2556,0.2558,0.2556,0.259,0.2592,0.2646,0.2648,0.2719,0.2795,0.2806,0,0,0,0.2449,0.246,0.2475,0.2503,0.2533,0.257,0.258,0.2598,0.2632,0.2572,0.2662,0.2662,0.2705,0.2699,0.2708,0.2696,0.261,0.261,0.2609,0.2433,0.2462,0.2482,0.2524,0.256,0.2614,0.2649,0.2678,0.267,0.27,0.271,0.2807,0.2801,0.2808,0.2796,0.2731,0.2731,0.2731,0.2731,0.2426,0.243,0.2481,0.2508,0.2569,0.2615,0.271,0.273,0.2811,0.2773,0.2814,0.276,0.282,0.2804,0.2734,0.2734,0.2734,0.2733,0.2733,0.2393,0.2396,0.2417,0.2465,0.2528,0.2611,0.2708,0.2785,0.284,0.2885,0.2902,0.2901,0.2878,0.292,0.292,0.2921,0.2921,0.2921,0.2921,0.2334,0.2359,0.2369,0.2427,0.2461,0.256,0.2712,0.2798,0.2918,0.295,0.295,0.2913,0.2865,0.2847,0.2927,0.2926,0.2925,0.2925,0.2924,0.2284,0.2299,0.2313,0.2337,0.2421,0.2469,0.2648,0.2829,0.2949,0.3005,0.3017,0.2998,0.2987,0.2979,0.2964,0.307,0.307,0.307,0.307,0.2242,0.2255,0.2252,0.2272,0.2335,0.2422,0.2512,0.2695,0.2924,0.3006,0.3072,0.3018,0.3012,0.2999,0.2991,0.2975,0.3081,0.3081,0.3081,0.2207,0.2218,0.2189,0.2213,0.2268,0.2346,0.2364,0.2502,0.2866,0.308,0.3061,0.3061,0.2977,0.2969,0.294,0.2929,0.2899,0,0]},{"header":{"parameterUnit":"m.s-1","parameterCategory":2,"la1":30.2992,"la2":30.254,"lo1":-89.0895,"lo2":-89.0443,"dy":0.0025,"dx":0.0025,"nx":19,"ny":19,"refTime":"2026-04-05T03:00:00:Z","depth":"0","parameterNumber":3,"parameterNumberName":"V-component_of_CURRENTS"},"data":[0,0,0,-0.0047,-0.0048,-0.0091,-0.0091,-0.0152,-0.0152,0,0,0,0,0,0,0,0,0,0,0,-0.0033,-0.0034,-0.0047,-0.0048,-0.0091,-0.0091,-0.0152,-0.0152,0,0,0,0,0,0,0,0,0,0,0,-0.0033,-0.0033,-0.0034,-0.0048,-0.0091,-0.0091,-0.0152,-0.0121,0,0,0,0,0,0,0,0,0,0,-0.0079,-0.0058,-0.0033,-0.0034,-0.0048,-0.0091,-0.0091,-0.0119,-0.0123,-0.013,0,-0.0129,0,-0.0136,-0.0155,-0.0156,0,0,0,-0.006,-0.0055,-0.0068,-0.0034,-0.0048,-0.0091,-0.0075,-0.0121,-0.0125,-0.0134,-0.013,-0.0132,-0.0137,-0.0156,-0.0156,-0.0143,-0.0142,0,0,-0.0058,-0.0043,-0.0065,-0.007,-0.005,-0.0073,-0.0076,-0.0124,-0.0123,-0.013,-0.0134,-0.0138,-0.0156,-0.0156,-0.0143,-0.0143,0,0,0,-0.0042,-0.0042,-0.0053,-0.0067,-0.0071,-0.0074,-0.0077,-0.0121,-0.0125,-0.0135,-0.0139,-0.0156,-0.0157,-0.0144,-0.0143,-0.0053,0,0,0,-0.0042,-0.0032,-0.0052,-0.0044,-0.007,-0.0094,-0.0074,-0.0122,-0.0127,-0.0138,-0.0156,-0.0157,-0.0144,-0.0143,-0.0057,-0.0001,0,0,0,-0.0033,-0.0031,-0.0033,-0.0043,-0.0056,-0.0094,-0.0101,-0.0123,-0.0129,-0.0156,-0.0157,-0.0145,-0.0144,-0.006,-0.0007,0.0035,0,0,0,-0.0022,0.0002,-0.0033,-0.0007,-0.0056,-0.0044,-0.0101,-0.0107,-0.0122,-0.0157,-0.0144,-0.0143,-0.0061,-0.0011,0.0031,0.0107,0.0131,0,0,0.0019,0.0007,0.0023,-0.0008,0.0033,-0.004,-0.0006,-0.0059,-0.0109,-0.0133,-0.0133,-0.0056,-0.0007,0.0034,0.0173,0.0195,0,0,0,0.0044,0.006,0.0065,0.0077,0.0064,0.0066,0.0008,-0.0019,-0.0047,-0.0111,-0.0058,-0.003,-0.0007,0.0031,0.0048,-0.0067,-0.0138,-0.0138,-0.0138,0.0123,0.0119,0.0163,0.0161,0.0167,0.0136,0.0128,0.0081,0.0018,0.0019,0.0042,0.0134,0.0176,0.019,0.007,0.003,0.003,0.003,0.003,0.021,0.0241,0.0241,0.0278,0.0271,0.0285,0.0244,0.0199,0.019,0.0122,0.0139,0.0122,0.0215,0.0079,0.0036,0.0035,0.0034,0.0034,0.0034,0.027,0.0288,0.0298,0.0357,0.0396,0.0375,0.0439,0.0373,0.0285,0.0306,0.0321,0.032,0.0202,0.0307,0.0307,0.0308,0.0308,0.0308,0.0309,0.0325,0.0343,0.0396,0.0442,0.0488,0.055,0.0546,0.0551,0.0505,0.044,0.044,0.023,0.0218,0.0208,0.0316,0.0314,0.0313,0.0313,0.0312,0.0408,0.0405,0.0495,0.0546,0.0664,0.0787,0.0771,0.0793,0.0752,0.0747,0.0444,0.0499,0.0477,0.0462,0.0458,0.0623,0.0623,0.0623,0.0623,0.0462,0.0467,0.059,0.0693,0.0826,0.0902,0.1057,0.1038,0.0794,0.0641,0.0504,0.0438,0.043,0.0399,0.0386,0.0376,0.0516,0.0516,0.0515,0.0527,0.0553,0.0655,0.0744,0.0894,0.1043,0.1191,0.1228,0.0831,0.0493,0.0329,0.0334,0.0211,0.0209,0.0134,0.0125,0.01,0,0]}],[{"header":{"parameterUnit":"m.s-1","parameterCategory":2,"la1":30.2992,"la2":30.254,"lo1":-89.0895,"lo2":-89.0443,"dy":0.0025,"dx":0.0025,"nx":19,"ny":19,"refTime":"2026-04-05T03:00:00:Z","depth":"2","parameterNumber":2,"parameterNumberName":"U-component_of_CURRENTS"},"data":[0,0,0,0.2439,0.244,0.2477,0.2477,0.2508,0.2508,0,0,0,0,0,0,0,0,0,0,0,0.2421,0.2421,0.2438,0.244,0.2477,0.2477,0.2508,0.2508,0,0,0,0,0,0,0,0,0,0,0,0.242,0.2421,0.2422,0.244,0.2477,0.2477,0.2507,0.2481,0,0,0,0,0,0,0,0,0,0,0.2445,0.2432,0.2421,0.2422,0.244,0.2477,0.2477,0.248,0.2482,0.2489,0,0.2501,0,0.2513,0.2511,0.2511,0,0,0,0.2428,0.2429,0.2447,0.2422,0.2441,0.2477,0.2457,0.2481,0.2484,0.2493,0.2502,0.2503,0.2513,0.2511,0.2511,0.259,0.2591,0,0,0.2426,0.2419,0.2445,0.2449,0.2459,0.2456,0.2459,0.2483,0.2486,0.2502,0.2504,0.2514,0.2511,0.2511,0.2589,0.259,0,0,0,0.2428,0.2417,0.2434,0.2447,0.246,0.2457,0.246,0.2484,0.2492,0.2505,0.2514,0.2511,0.2512,0.2589,0.259,0.2634,0,0,0,0.2426,0.2419,0.2433,0.2428,0.246,0.2475,0.246,0.249,0.2494,0.2514,0.2511,0.2512,0.2588,0.2589,0.2631,0.2638,0,0,0,0.2417,0.2418,0.2427,0.2427,0.245,0.2475,0.2483,0.2491,0.25,0.2511,0.2512,0.2588,0.2589,0.2629,0.2634,0.2703,0,0,0,0.2402,0.2414,0.2427,0.2447,0.245,0.2492,0.2483,0.2506,0.2516,0.2512,0.2588,0.259,0.2628,0.2632,0.27,0.268,0.2691,0,0,0.2407,0.2414,0.2428,0.244,0.2483,0.2485,0.2535,0.2541,0.2541,0.2575,0.2577,0.2632,0.2634,0.2702,0.2757,0.2766,0,0,0,0.2423,0.2435,0.245,0.2479,0.251,0.2548,0.2561,0.258,0.2617,0.2557,0.2647,0.2647,0.2689,0.2671,0.2679,0.2596,0.2596,0.2596,0.2596,0.241,0.2438,0.246,0.2502,0.2538,0.2593,0.2629,0.2659,0.2653,0.2684,0.2695,0.2789,0.2771,0.2777,0.2715,0.2715,0.2715,0.2716,0.2716,0.2405,0.241,0.2461,0.2489,0.2549,0.2597,0.269,0.2711,0.2792,0.2756,0.2796,0.2732,0.2787,0.272,0.2719,0.2718,0.2718,0.2718,0.2717,0.2374,0.2378,0.24,0.2449,0.2513,0.2596,0.2691,0.2767,0.2821,0.2866,0.2869,0.2868,0.2817,0.29,0.29,0.29,0.2901,0.2901,0.2901,0.2318,0.2343,0.2355,0.2414,0.2449,0.2547,0.2697,0.2779,0.2887,0.2914,0.2914,0.2852,0.2846,0.2828,0.2907,0.2906,0.2905,0.2904,0.2904,0.2271,0.2286,0.2302,0.2327,0.241,0.2445,0.2628,0.2792,0.2908,0.2955,0.2955,0.2952,0.2939,0.2932,0.2917,0.3013,0.3013,0.3013,0.3013,0.223,0.2243,0.2243,0.2263,0.2324,0.2394,0.244,0.2541,0.2734,0.2776,0.2785,0.271,0.2713,0.2681,0.268,0.2657,0.2686,0.2685,0.2684,0.2197,0.2208,0.2181,0.2205,0.2257,0.2304,0.2243,0.2166,0.2351,0.2661,0.2623,0.3012,0.2926,0.292,0.2889,0.288,0.285,0,0]},{"header":{"parameterUnit":"m.s-1","parameterCategory":2,"la1":30.2992,"la2":30.254,"lo1":-89.0895,"lo2":-89.0443,"dy":0.0025,"dx":0.0025,"nx":19,"ny":19,"refTime":"2026-04-05T03:00:00:Z","depth":"2","parameterNumber":3,"parameterNumberName":"V-component_of_CURRENTS"},"data":[0,0,0,0.0043,0.0042,-0.0005,-0.0005,-0.0064,-0.0065,0,0,0,0,0,0,0,0,0,0,0,0.0058,0.0057,0.0043,0.0042,-0.0004,-0.0005,-0.0064,-0.0065,0,0,0,0,0,0,0,0,0,0,0,0.0058,0.0057,0.0057,0.0042,-0.0004,-0.0005,-0.0064,-0.0032,0,0,0,0,0,0,0,0,0,0,0.0012,0.0033,0.0057,0.0057,0.0042,-0.0004,-0.0005,-0.003,-0.0034,-0.0039,0,-0.004,0,-0.0048,-0.0067,-0.0068,0,0,0,0.003,0.0036,0.0023,0.0057,0.0042,-0.0004,0.0013,-0.0032,-0.0036,-0.0044,-0.0041,-0.0043,-0.0049,-0.0068,-0.0068,-0.0055,-0.0055,0,0,0.0033,0.0047,0.0026,0.0021,0.0038,0.0015,0.0012,-0.0035,-0.0035,-0.0041,-0.0044,-0.0049,-0.0068,-0.0068,-0.0055,-0.0055,0,0,0,0.0048,0.0049,0.0036,0.0024,0.0018,0.0014,0.001,-0.0033,-0.0037,-0.0045,-0.005,-0.0068,-0.0069,-0.0056,-0.0055,0.003,0,0,0,0.0049,0.0059,0.0038,0.0045,0.002,-0.0007,0.0014,-0.0034,-0.0039,-0.005,-0.0068,-0.0069,-0.0056,-0.0056,0.0027,0.0081,0,0,0,0.0058,0.006,0.0057,0.0046,0.0032,-0.0006,-0.0014,-0.0035,-0.0042,-0.0068,-0.0069,-0.0057,-0.0056,0.0024,0.0075,0.0115,0,0,0,0.007,0.0091,0.0057,0.008,0.0032,0.0042,-0.0013,-0.002,-0.0036,-0.0068,-0.0056,-0.0055,0.0023,0.0071,0.0111,0.018,0.0202,0,0,0.0108,0.0096,0.011,0.008,0.0118,0.0047,0.0078,0.0026,-0.0022,-0.0045,-0.0045,0.0028,0.0074,0.0114,0.0243,0.0264,0,0,0,0.013,0.0146,0.015,0.016,0.0148,0.0148,0.0091,0.0065,0.0037,-0.0025,0.0026,0.0053,0.0075,0.0109,0.0125,-0.005,-0.005,-0.005,-0.005,0.0204,0.02,0.0242,0.024,0.0246,0.0215,0.0206,0.0161,0.0099,0.01,0.0121,0.021,0.0247,0.026,0.0109,0.0109,0.011,0.011,0.011,0.0285,0.0315,0.0316,0.035,0.0345,0.0358,0.0318,0.0274,0.0264,0.0198,0.0214,0.0196,0.0283,0.0117,0.0116,0.0115,0.0114,0.0113,0.0113,0.0341,0.0359,0.0368,0.0425,0.0463,0.0444,0.0506,0.0441,0.0355,0.0375,0.0386,0.0384,0.0266,0.0374,0.0375,0.0375,0.0376,0.0376,0.0376,0.0393,0.041,0.0461,0.0506,0.0552,0.0612,0.0608,0.0613,0.0565,0.0499,0.0499,0.0299,0.029,0.028,0.0383,0.0382,0.0381,0.038,0.038,0.047,0.0468,0.0555,0.0605,0.0722,0.084,0.0825,0.0842,0.0801,0.0793,0.056,0.0554,0.0533,0.0519,0.0514,0.0671,0.0671,0.0671,0.0671,0.0522,0.0527,0.0647,0.0749,0.0879,0.0951,0.1085,0.104,0.0892,0.0775,0.077,0.0724,0.0711,0.0695,0.0677,0.0673,0.0871,0.0872,0.0872,0.0584,0.061,0.0709,0.0798,0.0946,0.1086,0.1198,0.114,0.0925,0.0876,0.0765,0.0692,0.0609,0.0594,0.0551,0.053,0.0515,0,0]}],[{"header":{"parameterUnit":"m.s-1","parameterCategory":2,"la1":30.2992,"la2":30.254,"lo1":-89.0895,"lo2":-89.0443,"dy":0.0025,"dx":0.0025,"nx":19,"ny":19,"refTime":"2026-04-05T03:00:00:Z","depth":"4","parameterNumber":2,"parameterNumberName":"U-component_of_CURRENTS"},"data":[0,0,0,0.1732,0.1735,0.1899,0.1899,0.2023,0.2024,0,0,0,0,0,0,0,0,0,0,0,0.1682,0.1683,0.1731,0.1736,0.1898,0.1899,0.2023,0.2024,0,0,0,0,0,0,0,0,0,0,0,0.1681,0.1683,0.1685,0.1736,0.1898,0.1899,0.2023,0.192,0,0,0,0,0,0,0,0,0,0,0.1772,0.1743,0.1683,0.1685,0.1737,0.1898,0.1899,0.1916,0.1927,0.1926,0,0.1966,0,0.1996,0.2031,0.2031,0,0,0,0.1733,0.1734,0.1775,0.1685,0.1739,0.1898,0.1824,0.1923,0.1934,0.1939,0.1968,0.1974,0.1998,0.2031,0.2032,0.2158,0.2158,0,0,0.1724,0.1711,0.1767,0.1783,0.1799,0.1819,0.1829,0.1931,0.195,0.1969,0.1977,0.2,0.2032,0.2033,0.2157,0.2158,0,0,0,0.17,0.1705,0.1745,0.1777,0.1813,0.1824,0.1836,0.1946,0.196,0.1978,0.2001,0.2033,0.2034,0.2156,0.2157,0.2205,0,0,0,0.1694,0.1691,0.1741,0.1734,0.1811,0.1894,0.1849,0.1953,0.1965,0.2001,0.2033,0.2035,0.2156,0.2157,0.2202,0.2207,0,0,0,0.1671,0.1688,0.1712,0.1733,0.1804,0.1893,0.1913,0.1956,0.1978,0.2031,0.2035,0.2155,0.2157,0.22,0.2204,0.2259,0,0,0,0.1643,0.168,0.1712,0.1765,0.1803,0.1895,0.1913,0.1993,0.2041,0.2033,0.2156,0.2157,0.2199,0.2202,0.2257,0.197,0,0,0,0.1663,0.1682,0.1711,0.1743,0.1825,0.1871,0.1966,0.2039,0.2061,0.2114,0.2118,0.2203,0.2204,0.2259,0.2061,0,0,0,0,0.1699,0.1726,0.1756,0.1819,0.1885,0.1967,0.204,0.2079,0.2166,0.2099,0.2221,0.2219,0.2253,0.2078,0.2165,0.2164,0.2164,0.2164,0.2164,0.1693,0.1737,0.1791,0.1862,0.1931,0.2042,0.2111,0.218,0.2198,0.2251,0.2272,0.2362,0.218,0.2296,0.2296,0.2296,0.2296,0.2297,0.2297,0.1701,0.1721,0.1808,0.1878,0.1975,0.2069,0.2194,0.2241,0.2349,0.2334,0.2365,0.2156,0.2302,0.2301,0.23,0.2299,0.2299,0.2299,0.2298,0.1663,0.1677,0.1746,0.1853,0.1972,0.2096,0.22,0.2309,0.2385,0.2431,0.2267,0.2402,0.2383,0.2468,0.2468,0.2468,0.2469,0.2469,0.2469,0.1579,0.1646,0.1706,0.183,0.1907,0.2038,0.222,0.2284,0.2393,0.2286,0.2459,0.242,0.2414,0.2394,0.2473,0.2473,0.2472,0.2472,0.2471,0.151,0.1561,0.1627,0.1701,0.1852,0.1917,0.2123,0.2168,0.2222,0.2191,0.2209,0.2221,0.2178,0.2179,0.2147,0.2157,0.2154,0.2151,0,0.1451,0.1484,0.1555,0.1623,0.1688,0.1831,0.1825,0.1926,0.2016,0.1943,0.2241,0.2261,0.2267,0.2218,0.2213,0.2174,0,0,0,0.1406,0.1439,0.1452,0.1536,0.1591,0.1659,0.1808,0.177,0.1998,0.1956,0.2065,0.2088,0.2334,0.2487,0.2449,0.2442,0.2407,0,0]},{"header":{"parameterUnit":"m.s-1","parameterCategory":2,"la1":30.2992,"la2":30.254,"lo1":-89.0895,"lo2":-89.0443,"dy":0.0025,"dx":0.0025,"nx":19,"ny":19,"refTime":"2026-04-05T03:00:00:Z","depth":"4","parameterNumber":3,"parameterNumberName":"V-component_of_CURRENTS"},"data":[0,0,0,0.0185,0.0185,0.0147,0.0147,0.0094,0.0094,0,0,0,0,0,0,0,0,0,0,0,0.0199,0.0199,0.0185,0.0185,0.0148,0.0147,0.0094,0.0094,0,0,0,0,0,0,0,0,0,0,0,0.0199,0.0199,0.0199,0.0185,0.0148,0.0147,0.0095,0.0122,0,0,0,0,0,0,0,0,0,0,0.0158,0.0177,0.0199,0.0199,0.0185,0.0148,0.0147,0.0123,0.012,0.0113,0,0.0114,0,0.0107,0.0091,0.0091,0,0,0,0.0175,0.018,0.0169,0.0199,0.0184,0.0148,0.0162,0.0121,0.0118,0.0109,0.0113,0.0111,0.0106,0.0091,0.0091,0.0089,0.009,0,0,0.0177,0.019,0.0171,0.0167,0.0184,0.0163,0.0161,0.0119,0.012,0.0113,0.011,0.0105,0.0091,0.009,0.0089,0.0089,0,0,0,0.019,0.0192,0.0182,0.0169,0.0165,0.0162,0.0159,0.0122,0.0118,0.011,0.0105,0.009,0.009,0.0089,0.0089,0.0157,0,0,0,0.019,0.02,0.0183,0.019,0.0166,0.0145,0.0163,0.0121,0.0116,0.0105,0.009,0.009,0.0088,0.0089,0.0155,0.02,0,0,0,0.0199,0.0201,0.0199,0.0191,0.0179,0.0145,0.0139,0.012,0.0114,0.0091,0.0089,0.0088,0.0089,0.0152,0.0195,0.0221,0,0,0,0.0209,0.0222,0.0199,0.0213,0.0179,0.0181,0.0139,0.013,0.0116,0.009,0.0089,0.0089,0.0152,0.0192,0.0218,0.0234,0,0,0,0.0233,0.0225,0.0234,0.0213,0.0237,0.0185,0.0203,0.0161,0.0123,0.0099,0.0099,0.0155,0.0195,0.022,0.0274,0,0,0,0,0.0246,0.0257,0.0259,0.0266,0.0254,0.0254,0.0208,0.0188,0.0163,0.0118,0.015,0.0173,0.0187,0.0188,0.0093,0.0093,0.0092,0.0092,0.0092,0.0295,0.0292,0.0321,0.0319,0.0322,0.0299,0.0291,0.0254,0.0207,0.0206,0.0224,0.0287,0.029,0.021,0.021,0.0211,0.0211,0.0211,0.0211,0.0346,0.0365,0.0372,0.0397,0.0396,0.0406,0.0373,0.034,0.033,0.0281,0.029,0.0255,0.0218,0.0217,0.0216,0.0215,0.0214,0.0214,0.0214,0.0381,0.0392,0.0406,0.0452,0.0487,0.0476,0.0521,0.0474,0.0402,0.0416,0.0398,0.0334,0.0333,0.0414,0.0414,0.0414,0.0415,0.0415,0.0415,0.0408,0.0426,0.047,0.0512,0.0556,0.0605,0.0607,0.06,0.053,0.0489,0.0439,0.0355,0.0349,0.0344,0.042,0.0419,0.0419,0.0418,0.0418,0.0448,0.0458,0.0529,0.0577,0.0677,0.0717,0.0725,0.0687,0.0677,0.0628,0.0515,0.0509,0.0486,0.0476,0.0475,0.0593,0.0594,0.0594,0,0.0476,0.0485,0.0585,0.0673,0.0764,0.0786,0.0804,0.078,0.0675,0.066,0.0658,0.0533,0.0526,0.0501,0.0493,0.0492,0,0,0,0.051,0.0537,0.0613,0.0696,0.0798,0.0809,0.0809,0.0782,0.0693,0.0679,0.0607,0.0604,0.0533,0.0435,0.0385,0.0377,0.0367,0,0]}]]